This is the latest recevied weather packets stored in our database for station/object WK7G. If no packets are shown the sender has not sent any weather packets the latest 10 day(s).
| Time | Temp. | Humidity | Pressure | Rain* | Wind** | Luminosity | Snow |
|---|---|---|---|---|---|---|---|
| 1777633738 | -1.11° C | 77% | 1015.1 hPa | 0 mm | - | 0 W/m² | - |
| 1777633437 | -1.11° C | 76% | 1015.1 hPa | 0 mm | - | 0 W/m² | - |
| 1777633134 | -1.11° C | 77% | 1015.2 hPa | 0 mm | - | 0 W/m² | - |
| 1777632830 | -1.11° C | 76% | 1015.1 hPa | 0 mm | - | 0 W/m² | - |
| 1777632526 | -1.11° C | 77% | 1014.9 hPa | 0 mm | - | 0 W/m² | - |
| 1777632224 | -1.11° C | 78% | 1014.9 hPa | 0 mm | - | 0 W/m² | - |
| 1777631921 | -1.11° C | 75% | 1015.1 hPa | 0 mm | - | 0 W/m² | - |
| 1777631620 | -0.56° C | 76% | 1014.9 hPa | 0 mm | - | 0 W/m² | - |
| 1777631316 | -1.11° C | 76% | 1014.9 hPa | 0 mm | - | 0 W/m² | - |
| 1777631013 | -0.56° C | 76% | 1014.8 hPa | 0 mm | - | 0 W/m² | - |
| 1777630709 | -1.11° C | 77% | 1014.9 hPa | 0 mm | - | 0 W/m² | - |
| 1777630406 | -1.11° C | 77% | 1014.8 hPa | 0 mm | - | 0 W/m² | - |
| 1777630103 | -0.56° C | 76% | 1014.5 hPa | 0 mm | - | 0 W/m² | - |
| 1777629801 | -0.56° C | 75% | 1014.8 hPa | 0 mm | - | 0 W/m² | - |
| 1777629497 | -0.56° C | 76% | 1014.9 hPa | 0 mm | - | 0 W/m² | - |
| 1777629194 | -0.56° C | 75% | 1014.7 hPa | 0 mm | - | 0 W/m² | - |
| 1777628890 | -0.56° C | 75% | 1014.5 hPa | 0 mm | - | 0 W/m² | - |
| 1777628587 | -1.11° C | 77% | 1014.9 hPa | 0 mm | - | 0 W/m² | - |
| 1777628283 | -1.11° C | 77% | 1014.8 hPa | 0 mm | - | 0 W/m² | - |
| 1777627979 | -1.67° C | 77% | 1014.8 hPa | 0 mm | - | 0 W/m² | - |
| 1777627672 | -1.11° C | 75% | 1014.7 hPa | 0 mm | - | 0 W/m² | - |
| 1777627371 | -0.56° C | 73% | 1014.8 hPa | 0 mm | - | 0 W/m² | - |
| 1777627069 | -1.11° C | 75% | 1014.8 hPa | 0 mm | - | 0 W/m² | - |
| 1777626765 | -1.11° C | 76% | 1014.6 hPa | 0 mm | - | 0 W/m² | - |
| 1777626461 | -1.11° C | 76% | 1014.7 hPa | 0 mm | - | 0 W/m² | - |
* Rain latest hour (hover to see other rain measurements)
** Current wind speed in m/s (hover to see current wind gust speed)